Regional Weather Roundup
Issued by NWS Charleston, SC

Current Version | Previous Version | Graphics & Text | Print | Product List | Glossary On
Versions: 1 2 3 4 5 6 7 8 9 10 11 12 13 14 15 16 17 18 19 20 21 22 23 24 25 26 27 28 29 30 31 32 33 34 35 36 37 38 39 40 41 42 43 44 45 46 47 48 49 50
000
ASUS42 KCHS 192127
RWRCHS

REGIONAL WEATHER ROUNDUP
NATIONAL WEATHER SERVICE CHARLESTON SC
400 PM EST SUN NOV 19 2017

NOTE: "FAIR" INDICATES FEW OR NO CLOUDS BELOW 12,000 FEET WITH NO
SIGNIFICANT WEATHER AND/OR OBSTRUCTIONS TO VISIBILITY.

NOT ALL STATIONS ARE QUALITY CONTROLLED. USE DATA WITH CAUTION...
ESPECIALLY DEWPOINT OBSERVATIONS.

SCZ027-030-031-034>040-042>050-192200-
...SOUTHEAST SOUTH CAROLINA...

CITY           SKY/WX    TMP DP  RH WIND       PRES   REMARKS
N CHARLESTON   MOSUNNY   65  39  38 NW14      29.86R
WATERFRONT PRK NOT AVBL
JOHNS ISLAND   FAIR      64  43  45 NW9       29.88R
PINOPOLIS        N/A     63  46  55 NW12      29.77R
MONCKS CORNER  FAIR      63  36  36 NW5       29.88R
SUMMERVILLE    FAIR      64  34  32 W8        29.89R
BEAUFORT MCAS  NOT AVBL
BEAUFORT ARPT  FAIR      63  43  48 NW14      29.89R
HILTON HEAD IS NOT AVBL
WALTERBORO     CLEAR     63  39  42 NW7       29.90R
ALLENDALE      FAIR      63  34  34 VRB6G13   29.91R

...SOUTHERN MIDLANDS AND PEE DEE...

CITY           SKY/WX    TMP DP  RH WIND       PRES   REMARKS
GEORGETOWN     FAIR      63  32  31 NW9       29.86R
KINGSTREE      NOT AVBL
ORANGEBURG     SUNNY     64  35  34 NW10      29.89R
BARNWELL         N/A     63  36  36 W8G15     29.93R
AIKEN          FAIR      57  32  38 W10G16    29.96R
MANNING        FAIR      63  36  36 MISG      29.89R
COLUMBIA       SUNNY     64  37  36 NW10      29.90R
SUMTER         SUNNY     63  17  17 NW13G21   29.86R
FLORENCE       SUNNY     64  27  24 NW12      29.87R
MYRTLE BEACH   SUNNY     64  31  28 NW13      29.85R
N MYRTLE BEACH SUNNY     64  33  31 NW8       29.83R

$$

GAZ063-065-086>088-099>101-113>116-118-119-134>141-150-192200-
...SOUTHEAST GEORGIA...

CITY           SKY/WX    TMP DP  RH WIND       PRES   REMARKS
SAVANNAH ARPT  MOSUNNY   65  39  38 NW15G21   29.91R
HUNTER AAF     SUNNY     65  42  43 W9        29.88R
FORT STEWART   SUNNY     64  37  37 W9        29.90R
STATESBORO     SUNNY     63  29  27 NW14      29.94R
SYLVANIA       CLEAR     63  39  40 NW13      29.93R
CLAXTON        FAIR      64  35  34 W12       29.94R

...CSRA...CENTRAL AND FAR SOUTHEAST GEORGIA...

CITY           SKY/WX    TMP DP  RH WIND       PRES   REMARKS
THOMSON        SUNNY     57  31  36 N15       30.02R
AUGUSTA-BUSH   SUNNY     62  32  32 W14       29.94R
AUGUSTA-DANIEL SUNNY     61  32  33 NW14G21   29.95R
SWAINSBORO     FAIR      59  34  38 NW14      29.97R
VIDALIA        SUNNY     63  37  39 NW12      29.96R
EASTMAN        FAIR      61  15  16 NW10      30.01R
HAZLEHURST     FAIR      64   9  11 NW5       29.96R
ALMA           SUNNY     64  33  31 NW9       29.94R
WAYCROSS       SUNNY     64  24  22 NW9       29.95R
JESUP          FAIR      64  34  32 NW9       29.94R
BAXLEY         FAIR      61  32  33 N9        29.95R
BRUNSWICK      SUNNY     64  41  42 NW9       29.92R
SAINT SIMONS   SUNNY     66  44  45 NW9       29.90R

$$

SCZ027-028-034-036>038-045-046-048>050-GAZ119-141-192200-
...LAKE AND SUPPLEMENTAL COASTAL OBSERVATIONS...

STATION/POSITION TIME  TEMP    WIND        PRES    WAVE   SWELL
                       AIR SEA DIR/SP/G            HT/PER HT/PER/DIR
                 (UTC) (F)     (DEG/KT/KT) (MB)    (FT/S) (FT/S/D)
WINYAH BAY       2045   64     310/  9     1010.0S
LAKE MURRAY      2030   61     280/  8/ 14 1011.5R
ACE BASIN NERRS  2045   65     300/  3     1012.0R
FORT PULASKI     2100   63 62  310/ 16/ 18 1012.7
SAPELO ISLAND    2100   65     310/ 12     1013.0

$$

ANZ835-935-AMZ111-154-330-350-352-354-370-450-454-472-192200-
...C-MAN AND BUOY OBSERVATIONS...

STATION/POSITION TIME  TEMP    WIND        PRES    WAVE   SWELL
                       AIR SEA DIR/SP/G            HT/PER HT/PER/DIR
                 (UTC) (F)     (DEG/KT/KT) (MB)    (FT/S) (FT/S/D)
BUOY 41004       2110   65 74  320/ 16/ 19 1010.6
BUOY 41008       2050   63 68  300/ 14/ 17 1012.2R   3/ 4
FOLLY BEACH CMAN 2100   65     290/  8/ 13 1012.0R
CAPERS NEARSHORE 2108   62 63  330/ 10/ 16 1010.9R
FRIPP NEARSHORE  2108   62 62  290/ 17/ 25 1010.5F


STATION/POSITION TIME  TEMP    WIND        PRES    WAVE   SWELL
                       AIR SEA DIR/SP/G            HT/PER HT/PER/DIR
                 (UTC) (F)     (DEG/KT/KT) (MB)    (FT/S) (FT/S/D)
5E ST. MARYS GA  2100      67                N/A     2/ 3
FRYING PAN BUOY  2110   64 71  310/ 16/ 23 1009.5
BUOY 41025       2110   61 65  320/ 14/ 19 1008.0
CAPE LOOKOUT NC  2100          330/ 12/ 17 1008.5R
BUOY 41002       2050   76 77  240/ 25/ 33 1006.6R  10/ 7   2/220/13
BUOY 41010       NOT AVBL
ST AUGUSTINE FL  2100   68 69  320/ 10/ 12 1012.5R


$$



USA.gov is the U.S. government's official web portal to all federal, state and local government web resources and services.